Wind_Speed
45 44 43 42 42 41 40 40 40 40 40 39 38 37 37 36 36 34 34 33 32 31 30 29 29 29 29 29 29 29 29 29 29 29 29 29 29 28 28 28 27 27 26
48 46 46 45 44 43 41 41 41 40 41 40 40 39 39 38 37 37 36 35 34 33 32 31 31 31 31 31 31 31 31 31 30 30 30 30 30 29 29 28 28 28 28
50 49 48 46 45 44 42 42 42 42 42 42 41 41 41 40 39 39 38 36 36 35 34 33 33 32 32 33 33 33 33 33 32 32 32 32 32 31 30 29 29 28 28
53 50 49 49 47 45 43 43 43 43 43 43 43 43 43 42 41 40 39 38 37 37 36 35 35 35 35 35 35 35 35 35 34 34 34 34 33 33 31 31 30 29 28
54 53 50 49 48 46 45 45 45 45 45 45 44 44 44 44 43 41 41 40 39 38 38 38 37 37 37 37 37 37 37 37 37 36 36 36 35 34 33 32 31 30 29
56 55 52 50 49 48 47 47 46 46 46 46 46 46 45 44 44 43 42 42 41 40 40 39 39 39 39 39 39 39 39 39 39 38 37 36 35 34 34 33 31 30 30
56 55 53 52 50 49 49 49 49 47 46 47 46 46 46 46 45 44 44 43 42 41 41 40 40 40 40 40 40 40 40 40 40 39 38 36 35 35 34 33 32 31 30
55 54 53 53 52 51 50 49 49 49 48 48 48 48 47 46 44 44 43 43 43 43 42 41 41 41 41 40 40 40 40 39 38 38 38 37 37 36 35 34 32 32 31
55 54 54 54 54 53 52 51 51 50 50 50 50 51 49 48 46 45 44 43 43 43 43 42 42 42 42 41 40 39 39 38 38 38 38 37 37 35 35 34 33 32 31
53 53 53 54 53 53 53 52 51 52 52 52 51 51 50 49 48 46 46 46 46 45 45 44 44 43 43 42 40 40 40 39 39 38 38 38 37 37 36 34 33 33 32
51 52 52 53 54 53 53 53 52 52 53 52 51 50 51 51 49 48 48 47 46 46 46 45 44 44 44 43 42 42 41 41 41 40 40 39 39 38 37 35 34 33 33
48 49 51 51 52 52 53 53 53 53 53 52 51 52 52 51 50 49 48 46 46 46 46 47 45 45 44 44 44 43 43 42 42 42 40 39 39 38 37 36 35 35 35
42 45 48 49 50 50 50 51 52 53 54 53 52 52 52 51 50 51 51 50 48 48 48 47 47 46 45 45 44 43 43 42 42 42 41 41 40 39 38 37 37 36 36
37 40 42 45 46 47 48 50 50 52 52 52 53 52 52 52 52 52 51 52 52 51 50 48 47 47 47 46 44 44 44 44 44 44 43 42 41 40 39 38 37 37 36
32 34 36 38 40 43 45 49 50 51 52 52 52 53 52 53 54 53 51 52 53 53 51 48 48 48 49 48 47 46 45 44 44 44 44 44 43 42 41 40 39 38 37
30 31 33 35 37 38 41 44 47 49 50 51 53 54 53 52 54 54 53 54 54 54 53 51 51 51 51 51 49 49 48 47 47 46 45 44 44 44 43 42 41 40 39
28 31 32 33 35 36 38 41 43 45 46 48 50 51 53 53 53 54 54 55 55 56 55 54 54 53 53 53 53 52 51 50 48 48 47 47 47 45 44 44 43 42 41
26 28 30 32 34 37 39 41 43 44 45 47 49 50 51 54 55 55 56 57 56 56 57 57 56 56 56 56 56 55 54 52 51 50 49 49 48 47 46 45 44 43 42
26 28 31 33 35 37 38 40 41 43 46 48 50 52 53 55 55 56 57 57 57 58 59 59 59 59 59 59 58 57 56 54 53 51 51 50 49 48 47 45 45 44 43
29 30 32 34 35 38 39 41 43 46 47 49 50 51 53 56 57 58 59 59 59 60 61 62 61 60 60 60 60 59 58 56 54 53 52 51 49 48 47 46 46 45 44
31 33 34 36 38 40 42 44 45 47 49 50 52 53 55 56 58 60 61 62 63 63 64 64 64 64 63 63 61 59 58 58 57 55 54 52 51 50 50 49 48 47 46
32 34 36 38 41 43 45 46 47 49 51 53 55 55 56 58 59 61 63 64 66 66 66 66 66 66 65 64 61 61 60 60 59 57 56 55 54 53 53 52 52 50 48
36 38 40 41 43 45 47 49 51 52 54 56 58 59 60 62 63 64 65 67 67 68 69 70 69 67 66 64 64 63 63 62 61 60 60 58 57 56 55 54 53 52 50
40 42 44 46 48 50 52 54 56 57 59 60 62 63 64 65 67 68 69 70 70 70 71 72 71 70 68 67 66 66 66 65 64 63 62 61 59 57 56 55 54 52 50
44 46 48 50 53 55 57 58 60 62 63 64 66 67 68 68 69 71 71 72 72 73 73 73 73 72 71 70 69 69 68 67 66 65 63 62 60 58 57 55 54 53 51
48 50 52 54 56 58 60 61 63 64 66 67 68 69 70 70 70 72 73 74 73 73 74 74 74 73 72 72 71 70 69 67 67 66 63 61 60 59 58 56 54 53 50
Wind_Direction
250 251 253 252 253 254 253 253 253 253 253 253 254 254 253 254 254 254 255 255 256 257 259 261 263 265 267 271 273 276 278 282 284 287 289 291 294 296 298 299 300 301 302
249 249 251 251 251 252 253 253 253 253 253 255 256 254 254 253 254 255 255 256 256 257 259 261 263 265 267 270 272 275 277 280 283 285 288 290 292 293 295 297 298 299 300
248 249 250 250 250 250 250 251 253 253 254 255 256 256 255 254 255 255 256 256 257 258 258 260 262 264 267 269 271 274 276 279 282 283 285 288 290 292 293 294 296 296 298
246 247 249 248 247 247 247 250 252 253 254 255 255 256 257 255 255 256 257 257 257 258 259 260 261 264 266 268 270 272 276 278 280 282 284 286 289 290 290 292 293 294 295
245 245 246 247 245 245 247 248 250 252 253 254 256 257 258 257 256 257 257 257 258 259 259 260 261 264 266 267 269 272 275 277 279 280 282 284 287 288 288 290 291 291 293
243 242 243 245 245 246 247 247 249 251 253 255 256 256 257 258 257 257 257 258 258 258 260 261 262 263 265 267 268 271 274 275 277 278 281 283 285 287 288 288 289 289 291
243 242 242 244 245 245 246 247 248 250 252 254 255 256 257 257 257 258 258 258 259 259 260 261 262 264 265 267 269 270 273 275 275 277 278 280 282 285 287 288 287 287 288
242 242 243 243 244 245 246 247 248 249 251 253 254 255 256 256 257 258 258 258 259 259 260 261 263 264 265 267 268 270 272 272 274 275 276 277 279 282 285 286 285 284 285
242 243 243 244 245 246 247 248 248 249 251 253 253 254 257 257 258 257 258 259 259 259 261 262 264 264 265 265 268 269 269 270 272 274 275 276 279 282 283 283 282 282 283
242 243 244 244 244 246 247 247 249 250 251 253 254 255 256 256 256 257 258 259 259 260 261 262 264 265 265 266 267 267 267 268 271 272 275 276 277 280 281 281 280 281 282
244 245 245 245 244 245 247 248 249 249 250 252 253 255 256 256 256 258 259 259 259 261 261 262 264 265 266 265 266 267 267 269 270 272 274 275 277 278 279 278 277 279 281
245 246 245 245 245 247 247 248 249 248 248 250 253 254 255 256 256 257 258 258 260 261 261 262 264 265 266 266 266 266 267 268 269 272 273 274 275 276 276 276 276 279 281
247 247 245 245 246 247 248 249 250 250 250 252 254 255 255 255 256 257 257 257 259 261 261 262 263 264 264 265 265 265 267 267 268 270 271 272 273 274 274 274 276 278 280
246 246 246 246 247 248 249 249 251 251 252 254 254 254 256 255 256 259 259 258 260 260 260 260 262 262 264 265 265 265 266 267 268 268 270 271 272 272 272 273 276 277 280
245 246 248 249 250 251 251 251 251 253 254 254 254 255 256 257 257 260 261 260 261 260 259 260 261 262 264 265 264 264 266 267 267 268 269 269 270 271 271 273 275 277 279
250 252 254 253 252 252 253 253 254 253 254 255 256 257 258 259 260 260 260 262 262 261 260 261 262 264 264 265 264 265 267 268 267 267 267 268 269 270 270 272 274 275 276
256 257 256 254 253 252 253 255 255 254 256 258 259 258 259 260 260 261 261 261 261 261 261 261 262 263 264 265 265 266 267 267 266 266 266 268 269 270 270 271 273 273 275
263 262 259 258 257 257 257 257 256 256 257 258 259 259 260 260 260 261 261 261 261 262 262 262 262 263 263 264 266 266 266 265 265 265 266 266 267 267 268 269 270 272 273
271 269 265 264 264 264 263 262 260 260 259 260 261 260 261 261 261 261 261 261 262 262 263 263 262 263 263 263 265 265 265 263 264 264 264 265 266 266 267 268 269 270 270
278 276 274 271 268 267 267 266 264 264 263 263 263 262 262 261 262 262 262 262 262 262 263 263 263 264 264 264 264 264 263 263 263 264 263 264 264 265 265 267 267 267 267
280 279 277 275 274 272 270 269 268 267 266 265 265 265 265 264 264 263 263 263 263 263 264 264 264 264 264 264 264 263 262 262 262 263 263 263 264 264 264 265 266 265 264
286 283 281 280 278 277 275 273 272 271 271 270 269 269 268 266 266 266 266 265 265 265 264 264 264 264 265 264 262 262 262 261 262 262 263 263 264 264 264 263 263 262 262
290 289 286 285 283 282 281 278 277 275 274 273 271 270 270 269 269 268 267 266 266 265 264 264 264 264 264 263 263 262 262 262 262 262 262 262 262 262 263 262 261 260 260
294 292 291 288 287 285 283 281 280 278 277 275 274 273 272 271 271 269 268 267 266 266 265 265 264 264 263 263 263 262 262 262 261 261 261 260 260 260 260 260 259 259 258
296 295 293 291 288 287 286 284 282 281 279 277 276 275 274 273 272 270 269 268 267 267 266 265 264 263 262 262 261 261 261 261 260 259 259 258 258 258 257 257 257 257 257
297 296 295 293 291 288 286 285 284 283 281 279 277 276 275 274 274 272 271 269 267 266 264 264 264 263 261 261 260 259 259 258 258 258 257 257 256 255 255 254 253 253 253
Height
5801 5803 5805 5806 5808 5809 5811 5812 5813 5815 5816 5817 5819 5820 5821 5822 5824 5825 5825 5826 5827 5827 5828 5828 5828 5828 5828 5828 5828 5827 5826 5825 5824 5824 5822 5821 5820 5818 5817 5815 5813 5812 5809
5792 5794 5796 5798 5800 5801 5803 5805 5806 5807 5809 5810 5812 5813 5814 5815 5816 5818 5819 5820 5820 5821 5821 5822 5822 5822 5822 5822 5822 5821 5820 5819 5819 5818 5817 5815 5814 5813 5811 5810 5808 5806 5804
5782 5784 5786 5789 5791 5793 5794 5796 5798 5799 5801 5803 5804 5805 5807 5808 5809 5810 5811 5812 5813 5814 5814 5815 5815 5816 5815 5815 5815 5815 5814 5813 5812 5812 5811 5809 5808 5807 5805 5804 5802 5800 5799
5771 5774 5777 5780 5782 5784 5786 5788 5789 5791 5793 5794 5796 5797 5799 5800 5801 5803 5804 5805 5806 5806 5807 5807 5808 5808 5808 5808 5808 5808 5807 5807 5806 5805 5804 5803 5802 5801 5799 5798 5796 5795 5793
5760 5764 5767 5769 5772 5774 5777 5779 5781 5782 5784 5785 5787 5788 5790 5791 5793 5794 5796 5797 5798 5798 5799 5800 5800 5801 5801 5801 5801 5800 5800 5799 5799 5798 5797 5796 5795 5794 5793 5791 5790 5788 5787
5749 5752 5756 5759 5762 5765 5767 5769 5772 5773 5774 5776 5777 5779 5781 5782 5784 5786 5787 5788 5789 5790 5791 5791 5792 5792 5792 5793 5793 5792 5792 5792 5791 5790 5790 5789 5788 5787 5786 5785 5783 5782 5781
5737 5741 5745 5748 5751 5755 5757 5759 5761 5763 5765 5766 5768 5770 5771 5773 5775 5776 5778 5779 5780 5781 5782 5782 5783 5783 5784 5784 5784 5784 5783 5783 5783 5782 5782 5781 5780 5779 5779 5778 5777 5775 5774
5725 5729 5733 5737 5741 5744 5747 5749 5751 5753 5755 5756 5758 5759 5761 5764 5766 5767 5768 5770 5771 5771 5772 5773 5774 5774 5774 5775 5775 5775 5775 5774 5774 5774 5773 5773 5772 5772 5771 5770 5769 5769 5768
5714 5718 5722 5726 5730 5733 5736 5738 5740 5742 5744 5746 5747 5749 5752 5754 5756 5758 5759 5760 5760 5761 5762 5763 5764 5764 5765 5765 5765 5766 5766 5766 5766 5765 5765 5765 5764 5764 5763 5763 5762 5761 5760
5703 5707 5710 5714 5717 5721 5724 5727 5730 5732 5733 5735 5737 5739 5742 5744 5745 5747 5749 5749 5750 5751 5752 5753 5754 5754 5755 5755 5756 5756 5757 5757 5757 5757 5757 5756 5756 5756 5755 5755 5754 5753 5753
5692 5696 5699 5702 5706 5709 5712 5716 5718 5721 5723 5725 5727 5729 5730 5732 5734 5736 5738 5739 5739 5740 5741 5742 5743 5744 5744 5745 5746 5746 5747 5747 5748 5748 5748 5748 5748 5747 5747 5746 5746 5746 5745
5682 5685 5688 5691 5695 5698 5701 5704 5707 5709 5711 5713 5715 5717 5719 5721 5723 5724 5726 5727 5728 5729 5730 5731 5732 5733 5734 5734 5735 5736 5736 5737 5738 5738 5738 5738 5738 5738 5738 5738 5738 5737 5737
5672 5675 5678 5681 5685 5688 5691 5693 5695 5698 5700 5702 5704 5705 5707 5709 5711 5712 5713 5715 5716 5717 5719 5720 5721 5722 5723 5724 5724 5725 5726 5727 5727 5728 5728 5728 5729 5729 5729 5729 5729 5729 5728
5664 5667 5669 5672 5675 5677 5680 5682 5684 5686 5688 5690 5692 5693 5694 5696 5698 5699 5701 5702 5703 5705 5707 5709 5710 5711 5711 5712 5713 5714 5715 5716 5716 5717 5718 5718 5718 5719 5719 5719 5719 5720 5719
5658 5659 5661 5663 5665 5667 5669 5671 5673 5675 5677 5678 5679 5681 5682 5684 5685 5686 5687 5689 5690 5691 5694 5696 5698 5699 5699 5700 5701 5702 5703 5704 5705 5706 5706 5707 5707 5708 5708 5709 5709 5709 5710
5652 5653 5654 5655 5656 5658 5659 5661 5662 5664 5665 5666 5667 5668 5670 5671 5672 5673 5674 5675 5676 5678 5680 5684 5684 5685 5685 5687 5688 5689 5691 5692 5693 5694 5694 5695 5696 5697 5697 5698 5698 5699 5699
5646 5646 5647 5647 5648 5649 5650 5650 5651 5652 5653 5654 5654 5655 5656 5658 5658 5659 5660 5661 5662 5663 5665 5668 5669 5670 5671 5673 5674 5676 5677 5679 5680 5681 5682 5682 5683 5684 5685 5686 5687 5688 5688
5640 5640 5639 5639 5640 5640 5641 5641 5641 5641 5641 5641 5642 5642 5643 5644 5644 5645 5645 5646 5647 5648 5650 5652 5654 5655 5657 5658 5659 5661 5663 5664 5665 5667 5668 5669 5670 5671 5672 5673 5674 5676 5677
5634 5633 5632 5632 5631 5631 5630 5630 5629 5629 5629 5629 5629 5629 5630 5630 5629 5630 5630 5631 5632 5633 5634 5636 5638 5639 5641 5642 5643 5645 5647 5649 5650 5652 5653 5654 5656 5658 5659 5660 5662 5663 5665
5626 5625 5624 5623 5622 5621 5620 5619 5618 5617 5616 5615 5615 5614 5614 5614 5614 5614 5614 5615 5615 5616 5617 5618 5620 5622 5623 5625 5626 5628 5630 5633 5635 5636 5638 5640 5642 5644 5645 5647 5649 5650 5652
5618 5616 5614 5612 5611 5609 5608 5606 5605 5604 5602 5601 5599 5598 5597 5597 5596 5596 5596 5597 5597 5597 5598 5600 5602 5603 5605 5607 5609 5611 5613 5615 5617 5620 5622 5625 5627 5629 5631 5633 5635 5637 5639
5609 5606 5604 5601 5599 5596 5594 5592 5590 5588 5587 5585 5583 5581 5580 5579 5578 5577 5577 5577 5578 5578 5579 5580 5582 5584 5587 5588 5590 5592 5594 5596 5600 5604 5605 5608 5610 5613 5616 5618 5620 5623 5625
5599 5595 5592 5589 5585 5582 5579 5576 5574 5572 5570 5567 5565 5563 5561 5559 5557 5556 5556 5556 5556 5556 5558 5559 5561 5564 5566 5569 5570 5572 5574 5577 5581 5585 5587 5590 5593 5596 5599 5602 5605 5608 5611
5587 5583 5578 5574 5571 5567 5563 5559 5556 5553 5550 5547 5545 5542 5540 5538 5536 5534 5533 5533 5533 5534 5535 5536 5540 5543 5545 5547 5549 5552 5554 5557 5560 5564 5567 5571 5575 5578 5582 5585 5589 5592 5596
5574 5569 5564 5559 5554 5549 5544 5539 5535 5532 5528 5525 5522 5519 5517 5515 5512 5510 5509 5509 5510 5510 5510 5512 5515 5518 5521 5524 5526 5528 5531 5535 5539 5544 5547 5551 5556 5559 5563 5568 5572 5576 5581
5560 5554 5548 5542 5536 5530 5524 5519 5513 5509 5506 5502 5499 5495 5492 5490 5487 5484 5483 5483 5484 5484 5485 5487 5489 5492 5495 5499 5501 5504 5509 5512 5516 5522 5528 5531 5536 5540 5545 5551 5555 5560 5565